Location: La Pernelle
(49.6188°N, 1.2999°W)
Time: 15:56:55
(UTC+00:00)

Cosmos 1455 Rocket - Pass Details

Date: 12 June 2021
Orbit: 605 x 629 km, 82.5° (Epoch: 31 July)

Event Time Altitude Azimuth Distance (km) Brightness Sun altitude
Rises 20:56:14 0° 359° (N) 2,919 7.4 -6.0°
Reaches altitude 10° 20:58:47 10° 12° (NNE) 2,011 6.2 -6.3°
Maximum altitude 21:02:33 26° 69° (ENE) 1,241 4.4 -6.7°
Drops below altitude 10° 21:06:18 10° 127° (SE) 2,006 5.0 -7.1°
Enters shadow 21:06:39 - 129° (SE) 2,125 5.1 -7.1°
